Satellite: OKEAN-4 Catalog number: 23317 Epoch time: 14064.54675715 Element set: 472 Inclination: 082.5407 deg RA of node: 165.0743 deg Eccentricity: 0.0022149 Arg of perigee: 084.0071 deg Mean anomaly: 357.4770 deg Mean motion: 14.85198661 rev/day Decay rate: 2.230e-05 rev/day^2 Epoch rev: 4772 Checksum: 296
Satellite: NOAA-14 Catalog number: 23455 Epoch time: 14065.18326535 Element set: 674 Inclination: 098.7817 deg RA of node: 150.4339 deg Eccentricity: 0.0008753 Arg of perigee: 338.0304 deg Mean anomaly: 080.2536 deg Mean motion: 14.13954766 rev/day Decay rate: -3.6e-07 rev/day^2 Epoch rev: 98939 Checksum: 328
Satellite: NOAA-15 Catalog number: 25338 Epoch time: 14065.89845594 Element set: 103 Inclination: 098.7466 deg RA of node: 059.9866 deg Eccentricity: 0.0011622 Arg of perigee: 086.4819 deg Mean anomaly: 273.8173 deg Mean motion: 14.25360330 rev/day Decay rate: 5.27e-06 rev/day^2 Epoch rev: 82227 Checksum: 333
Satellite: RESURS Catalog number: 25394 Epoch time: 14064.04579444 Element set: 602 Inclination: 098.4006 deg RA of node: 032.8723 deg Eccentricity: 0.0001562 Arg of perigee: 159.8216 deg Mean anomaly: 242.1087 deg Mean motion: 14.24374081 rev/day Decay rate: 1.18e-06 rev/day^2 Epoch rev: 81349 Checksum: 283
Satellite: FENGYUN1 Catalog number: 25730 Epoch time: 14065.14581144 Element set: 95 Inclination: 098.9054 deg RA of node: 026.9402 deg Eccentricity: 0.0028863 Arg of perigee: 039.4333 deg Mean anomaly: 026.1530 deg Mean motion: 14.11512775 rev/day Decay rate: 3.622e-05 rev/day^2 Epoch rev: 76298 Checksum: 290
Satellite: OKEAN-0 Catalog number: 25860 Epoch time: 14064.86841468 Element set: 191 Inclination: 098.0301 deg RA of node: 029.4365 deg Eccentricity: 0.0001865 Arg of perigee: 080.2390 deg Mean anomaly: 332.0118 deg Mean motion: 14.75034808 rev/day Decay rate: 1.592e-05 rev/day^2 Epoch rev: 78692 Checksum: 300
Satellite: NOAA-16 Catalog number: 26536 Epoch time: 14065.83282289 Element set: 590 Inclination: 099.0040 deg RA of node: 125.6888 deg Eccentricity: 0.0011325 Arg of perigee: 112.5332 deg Mean anomaly: 247.7510 deg Mean motion: 14.13000514 rev/day Decay rate: 4.55e-06 rev/day^2 Epoch rev: 69366 Checksum: 289
Satellite: NOAA-17 Catalog number: 27453 Epoch time: 14065.86980823 Element set: 497 Inclination: 098.3133 deg RA of node: 070.9787 deg Eccentricity: 0.0012764 Arg of perigee: 112.5433 deg Mean anomaly: 247.7580 deg Mean motion: 14.24700071 rev/day Decay rate: 3.94e-06 rev/day^2 Epoch rev: 60812 Checksum: 315
Satellite: NOAA-18 Catalog number: 28654 Epoch time: 14065.90809759 Element set: 977 Inclination: 099.1368 deg RA of node: 043.4114 deg Eccentricity: 0.0014160 Arg of perigee: 188.2527 deg Mean anomaly: 171.8896 deg Mean motion: 14.11962177 rev/day Decay rate: 5.32e-06 rev/day^2 Epoch rev: 45316 Checksum: 336
Satellite: NOAA-19 Catalog number: 33591 Epoch time: 14065.91496528 Element set: 149 Inclination: 098.9343 deg RA of node: 011.3140 deg Eccentricity: 0.0015049 Arg of perigee: 050.3711 deg Mean anomaly: 309.9272 deg Mean motion: 14.11656805 rev/day Decay rate: 5.70e-06 rev/day^2 Epoch rev: 26156 Checksum: 298
/EX SB KEPS @ AMSAT $ORB14065.M Orbital Elements 14065.MISC
HR AMSAT ORBITAL ELEMENTS FOR MANNED AND MISCELLANEOUS SATELLITES FROM WA5QGD FORT WORTH,TX March 6, 2014 BID: ORB14065.M TO ALL RADIO AMATEURS BT
Satellite: HUBBLE Catalog number: 20580 Epoch time: 14065.15801595 Element set: 452 Inclination: 028.4713 deg RA of node: 354.1815 deg Eccentricity: 0.0002970 Arg of perigee: 267.1643 deg Mean anomaly: 195.2025 deg Mean motion: 15.04836657 rev/day Decay rate: 4.227e-05 rev/day^2 Epoch rev: 10917 Checksum: 285
Satellite: ISS Catalog number: 25544 Epoch time: 14065.82791197 Element set: 823 Inclination: 051.6476 deg RA of node: 246.9749 deg Eccentricity: 0.0003301 Arg of perigee: 215.2823 deg Mean anomaly: 290.9207 deg Mean motion: 15.51158040 rev/day Decay rate: 2.3288e-04 rev/day^2 Epoch rev: 87544 Checksum: 310
Satellite: CO-58 Catalog number: 28895 Epoch time: 14064.50791553 Element set: 710 Inclination: 097.8445 deg RA of node: 271.7167 deg Eccentricity: 0.0016933 Arg of perigee: 342.1885 deg Mean anomaly: 017.8721 deg Mean motion: 14.61630239 rev/day Decay rate: 1.487e-05 rev/day^2 Epoch rev: 44510 Checksum: 328
Satellite: FALCON Catalog number: 30776 Epoch time: 14065.13919167 Element set: 816 Inclination: 035.4308 deg RA of node: 030.9375 deg Eccentricity: 0.0000964 Arg of perigee: 245.5404 deg Mean anomaly: 183.2146 deg Mean motion: 15.14256727 rev/day Decay rate: 1.3012e-04 rev/day^2 Epoch rev: 38509 Checksum: 288
Satellite: MAST Catalog number: 31126 Epoch time: 14064.92341494 Element set: 989 Inclination: 097.9056 deg RA of node: 051.2662 deg Eccentricity: 0.0091296 Arg of perigee: 317.1167 deg Mean anomaly: 094.2113 deg Mean motion: 14.55054306 rev/day Decay rate: 1.867e-05 rev/day^2 Epoch rev: 36537 Checksum: 308
Satellite: CAPE1 Catalog number: 31130 Epoch time: 14064.18346515 Element set: 994 Inclination: 097.9259 deg RA of node: 047.0993 deg Eccentricity: 0.0098837 Arg of perigee: 336.9626 deg Mean anomaly: 022.7154 deg Mean motion: 14.54126058 rev/day Decay rate: 3.197e-05 rev/day^2 Epoch rev: 36469 Checksum: 335
Satellite: COMPASS Catalog number: 32787 Epoch time: 14065.11640429 Element set: 870 Inclination: 097.7151 deg RA of node: 121.5774 deg Eccentricity: 0.0014964 Arg of perigee: 157.5684 deg Mean anomaly: 202.6190 deg Mean motion: 14.87074673 rev/day Decay rate: 4.413e-05 rev/day^2 Epoch rev: 31686 Checksum: 313
Satellite: AAUSAT2 Catalog number: 32788 Epoch time: 14064.83105350 Element set: 856 Inclination: 097.7159 deg RA of node: 122.1686 deg Eccentricity: 0.0014523 Arg of perigee: 156.7275 deg Mean anomaly: 203.4602 deg Mean motion: 14.87692010 rev/day Decay rate: 6.338e-05 rev/day^2 Epoch rev: 31687 Checksum: 309
Satellite: DO-64 Catalog number: 32789 Epoch time: 14065.18457293 Element set: 893 Inclination: 097.7330 deg RA of node: 128.0839 deg Eccentricity: 0.0013793 Arg of perigee: 145.9526 deg Mean anomaly: 278.0193 deg Mean motion: 14.91660249 rev/day Decay rate: 1.0876e-04 rev/day^2 Epoch rev: 31713 Checksum: 346
Satellite: CO-66 Catalog number: 32791 Epoch time: 14065.11951974 Element set: 853 Inclination: 097.7146 deg RA of node: 120.5483 deg Eccentricity: 0.0015428 Arg of perigee: 160.0887 deg Mean anomaly: 200.0934 deg Mean motion: 14.85905203 rev/day Decay rate: 3.570e-05 rev/day^2 Epoch rev: 31674 Checksum: 310
Satellite: RS-30 Catalog number: 32953 Epoch time: 14065.85150511 Element set: 712 Inclination: 082.4968 deg RA of node: 264.8440 deg Eccentricity: 0.0019046 Arg of perigee: 021.8592 deg Mean anomaly: 338.3292 deg Mean motion: 12.43043401 rev/day Decay rate: 1.0e-07 rev/day^2 Epoch rev: 26254 Checksum: 272
Satellite: METEOR-M Catalog number: 35865 Epoch time: 14065.77048445 Element set: 321 Inclination: 098.5652 deg RA of node: 116.2240 deg Eccentricity: 0.0003312 Arg of perigee: 043.1091 deg Mean anomaly: 317.0336 deg Mean motion: 14.21911582 rev/day Decay rate: 7.8e-07 rev/day^2 Epoch rev: 23178 Checksum: 270
Satellite: RS-38 Catalog number: 35869 Epoch time: 14065.13427698 Element set: 262 Inclination: 098.5572 deg RA of node: 115.4414 deg Eccentricity: 0.0005078 Arg of perigee: 047.4604 deg Mean anomaly: 009.7206 deg Mean motion: 14.22186017 rev/day Decay rate: 7.8e-07 rev/day^2 Epoch rev: 23172 Checksum: 306
Satellite: JUGNU Catalog number: 37839 Epoch time: 14063.61703845 Element set: 574 Inclination: 019.9610 deg RA of node: 168.6848 deg Eccentricity: 0.0018932 Arg of perigee: 273.0667 deg Mean anomaly: 211.7361 deg Mean motion: 14.12260365 rev/day Decay rate: 5.70e-06 rev/day^2 Epoch rev: 12375 Checksum: 305
Satellite: SRMSAT Catalog number: 37841 Epoch time: 14064.67207097 Element set: 576 Inclination: 019.9713 deg RA of node: 179.5392 deg Eccentricity: 0.0011693 Arg of perigee: 227.9979 deg Mean anomaly: 263.1438 deg Mean motion: 14.10311083 rev/day Decay rate: 4.93e-06 rev/day^2 Epoch rev: 12372 Checksum: 314
Satellite: RAX-2 Catalog number: 37853 Epoch time: 14065.17972463 Element set: 742 Inclination: 101.7152 deg RA of node: 045.8428 deg Eccentricity: 0.0222606 Arg of perigee: 354.5939 deg Mean anomaly: 069.8031 deg Mean motion: 14.87514972 rev/day Decay rate: 1.8035e-04 rev/day^2 Epoch rev: 12733 Checksum: 316
Satellite: AUBIESAT Catalog number: 37854 Epoch time: 14065.18575413 Element set: 725 Inclination: 101.7195 deg RA of node: 047.3648 deg Eccentricity: 0.0221014 Arg of perigee: 352.3241 deg Mean anomaly: 072.0013 deg Mean motion: 14.88656192 rev/day Decay rate: 2.0623e-04 rev/day^2 Epoch rev: 12737 Checksum: 280
Satellite: HRBE Catalog number: 37855 Epoch time: 14064.53351921 Element set: 734 Inclination: 101.7197 deg RA of node: 045.9161 deg Eccentricity: 0.0222941 Arg of perigee: 355.1331 deg Mean anomaly: 116.4557 deg Mean motion: 14.88049018 rev/day Decay rate: 1.9698e-04 rev/day^2 Epoch rev: 12725 Checksum: 308
Satellite: RS-39 Catalog number: 38051 Epoch time: 14065.30867353 Element set: 328 Inclination: 051.6319 deg RA of node: 015.6472 deg Eccentricity: 0.0010068 Arg of perigee: 135.3359 deg Mean anomaly: 022.8540 deg Mean motion: 15.46529328 rev/day Decay rate: 6.6873e-04 rev/day^2 Epoch rev: 11811 Checksum: 303
Satellite: E-STAR Catalog number: 38079 Epoch time: 14065.61971735 Element set: 771 Inclination: 069.4548 deg RA of node: 257.4908 deg Eccentricity: 0.0464443 Arg of perigee: 142.0561 deg Mean anomaly: 221.3510 deg Mean motion: 14.83688176 rev/day Decay rate: 1.31902e-03 rev/day^2 Epoch rev: 10811 Checksum: 312
